リニア彗星

P/2000 QJ46 ( LINEAR )

English version
Home page
Updated on October 29, 2005

---------------------------------------------------------------------

・ プロフィール

発見日 2000年8月24日
発見光度 18.5等
発見者 Lincoln Laboratory Near-Earth Asteroid Research project

・ 軌道要素

                    Epoch = 2001 Apr.  1.0 TT
     T = 2000 Dec. 10.3467 TT         Peri. = 222.9660
     e = 0.673150                     Node  = 158.2344  2000.0
     q = 1.933644 AU                  Incl. =   4.3757
       a =  5.915996 AU    n = 0.0684955    P =  14.39 years

・ 光度変化

        m1 = 14.5 + 5 logΔ + 10.0 log r

---------------------------------------------------------------------

軌道要素はIAUC 8622に掲載されたものです。
光度グラフはComet for Windowsで作成したものです。

---------------------------------------------------------------------

Copyright(C) Seiichi Yoshida (comet@aerith.net). All rights reserved.